| time (UTC) | temp C | wind direction | speed KPH | gust KPH | rain 1hr cm | rain 24hr cm | rain mn cm | humidity % | barometer mb |
| 20260505194005 | 11 | 0 | 0.0 | 0.0 | 0.10 | 2.39 | 2.39 | 88 | 1024.8 |
| 20260505193004 | 11 | 0 | 0.0 | 0.0 | 0.10 | 2.39 | 2.39 | 88 | 1024.6 |
| 20260505192004 | 11 | 0 | 0.0 | 0.0 | 0.13 | 2.39 | 2.39 | 88 | 1024.5 |
| 20260505191004 | 11 | 0 | 0.0 | 0.0 | 0.13 | 2.39 | 2.39 | 88 | 1024.1 |
| 20260505190504 | 11 | 0 | 0.0 | 1.6 | 0.13 | 2.36 | 2.36 | 88 | 1024.9 |
| 20260505190004 | 11 | 0 | 0.0 | 12.9 | 0.15 | 2.36 | 2.36 | 88 | 1024.3 |
| 20260505185004 | 12 | 0 | 0.0 | 0.0 | 0.13 | 2.31 | 2.31 | 88 | 1024.6 |
| 20260505184505 | 12 | 0 | 0.0 | 1.6 | 0.10 | 2.31 | 2.31 | 88 | 1024.3 |
| 20260505184004 | 12 | 249 | 4.8 | 20.9 | 0.10 | 2.31 | 2.31 | 88 | 1023.8 |
| 20260505183005 | 12 | 235 | 8.0 | 24.1 | 0.10 | 2.31 | 2.31 | 88 | 1023.3 |
| 20260505182505 | 12 | 227 | 6.4 | 24.1 | 0.10 | 2.31 | 2.31 | 88 | 1022.6 |
| 20260505182005 | 12 | 223 | 6.4 | 20.9 | 0.08 | 2.29 | 2.29 | 88 | 1022.5 |
| 20260505181505 | 12 | 226 | 6.4 | 20.9 | 0.08 | 2.29 | 2.29 | 88 | 1022.5 |
| 20260505181005 | 12 | 230 | 6.4 | 16.1 | 0.05 | 2.24 | 2.24 | 88 | 1022.4 |
| 20260505180504 | 12 | 232 | 8.0 | 17.7 | 0.05 | 2.24 | 2.24 | 88 | 1022.5 |
| 20260505180004 | 12 | 232 | 8.0 | 17.7 | 0.00 | 2.21 | 2.21 | 88 | 1022.8 |
| 20260505175506 | 12 | 232 | 6.4 | 17.7 | 0.00 | 2.21 | 2.21 | 88 | 1022.8 |
| 20260505175004 | 12 | 236 | 4.8 | 17.7 | 0.03 | 2.21 | 2.21 | 88 | 1022.8 |
| 20260505174505 | 13 | 241 | 4.8 | 17.7 | 0.05 | 2.21 | 2.21 | 88 | 1022.8 |
| 20260505174004 | 13 | 244 | 1.6 | 16.1 | 0.05 | 2.21 | 2.21 | 87 | 1022.9 |
| 20260505173505 | 13 | 0 | 0.0 | 14.5 | 0.08 | 2.21 | 2.21 | 87 | 1022.8 |
| 20260505173004 | 13 | 0 | 0.0 | 0.0 | 0.13 | 2.21 | 2.21 | 87 | 1022.4 |
| 20260505172504 | 13 | 0 | 0.0 | 0.0 | 0.15 | 2.21 | 2.21 | 87 | 1022.7 |
| 20260505172004 | 13 | 0 | 0.0 | 0.0 | 0.15 | 2.21 | 2.21 | 88 | 1022.5 |
| 20260505170505 | 13 | 0 | 0.0 | 0.0 | 0.23 | 2.21 | 2.21 | 88 | 1022.0 |
| 20260505170004 | 13 | 0 | 0.0 | 0.0 | 0.25 | 2.21 | 2.21 | 88 | 1021.8 |
| 20260505165004 | 13 | 0 | 0.0 | 0.0 | 0.28 | 2.18 | 2.18 | 87 | 1022.2 |
| 20260505164505 | 13 | 0 | 0.0 | 0.0 | 0.28 | 2.16 | 2.16 | 87 | 1022.6 |
| 20260505164004 | 13 | 0 | 0.0 | 0.0 | 0.30 | 2.13 | 2.13 | 88 | 1022.2 |
| 20260505163505 | 13 | 0 | 0.0 | 0.0 | 0.28 | 2.11 | 2.11 | 87 | 1022.1 |
| 20260505163004 | 13 | 0 | 0.0 | 0.0 | 0.23 | 2.08 | 2.08 | 87 | 1022.0 |
| 20260505162505 | 13 | 0 | 0.0 | 0.0 | 0.23 | 2.06 | 2.06 | 87 | 1022.2 |
| 20260505162004 | 13 | 0 | 0.0 | 0.0 | 0.23 | 2.03 | 2.03 | 87 | 1022.0 |
| 20260505161505 | 14 | 0 | 0.0 | 0.0 | 0.23 | 2.03 | 2.03 | 87 | 1021.6 |
| 20260505161004 | 14 | 0 | 0.0 | 0.0 | 0.20 | 2.03 | 2.03 | 87 | 1021.6 |
| 20260505160505 | 14 | 0 | 0.0 | 0.0 | 0.18 | 1.98 | 1.98 | 87 | 1021.4 |
| 20260505153004 | 14 | 0 | 0.0 | 0.0 | 0.05 | 1.83 | 1.83 | 88 | 1021.2 |
| 20260505152504 | 14 | 0 | 0.0 | 0.0 | 0.03 | 1.83 | 1.83 | 87 | 1021.1 |
| 20260505152004 | 14 | 0 | 0.0 | 0.0 | 0.03 | 1.83 | 1.83 | 88 | 1021.0 |
| 20260505151505 | 14 | 0 | 0.0 | 0.0 | 0.03 | 1.83 | 1.83 | 88 | 1020.7 |
| 20260505151004 | 14 | 0 | 0.0 | 0.0 | 0.03 | 1.83 | 1.83 | 88 | 1021.2 |
| 20260505140505 | 14 | 0 | 0.0 | 0.0 | 0.08 | 1.78 | 1.78 | 87 | 1022.2 |
| 20260505125004 | 14 | 286 | 8.0 | 17.7 | 0.94 | 1.63 | 1.63 | 87 | 1022.9 |
| 20260505124004 | 14 | 257 | 4.8 | 16.1 | 0.89 | 1.55 | 1.55 | 87 | 1022.2 |
| 20260505123505 | 14 | 232 | 6.4 | 16.1 | 0.89 | 1.55 | 1.55 | 87 | 1022.3 |
| 20260505123004 | 14 | 229 | 6.4 | 19.3 | 0.86 | 1.52 | 1.52 | 87 | 1022.1 |
| 20260505122004 | 15 | 238 | 8.0 | 20.9 | 0.79 | 3.20 | 1.45 | 87 | 1022.3 |
| 20260505121505 | 15 | 243 | 9.7 | 22.5 | 0.76 | 3.17 | 1.42 | 87 | 1022.2 |
| 20260505121004 | 15 | 264 | 14.5 | 35.4 | 0.71 | 3.17 | 1.37 | 87 | 1022.5 |
| 20260505120005 | 17 | 275 | 9.7 | 33.8 | 0.30 | 3.15 | 0.97 | 86 | 1022.8 |
| 20260505114004 | 20 | 0 | 0.0 | 0.0 | 0.00 | 3.10 | 0.66 | 82 | 1021.6 |
| 20260505113504 | 20 | 0 | 0.0 | 0.0 | 0.00 | 3.10 | 0.66 | 81 | 1021.6 |
| 20260505113004 | 20 | 0 | 0.0 | 0.0 | 0.00 | 3.10 | 0.66 | 80 | 1021.6 |
| 20260505112504 | 20 | 0 | 0.0 | 0.0 | 0.00 | 3.10 | 0.66 | 80 | 1021.7 |
| 20260505112003 | 20 | 0 | 0.0 | 0.0 | 0.00 | 3.10 | 0.66 | 79 | 1021.4 |
| 20260505111504 | 20 | 0 | 0.0 | 3.2 | 0.00 | 3.10 | 0.66 | 79 | 1021.4 |
| 20260505111004 | 20 | 345 | 3.2 | 14.5 | 0.00 | 3.10 | 0.66 | 78 | 1021.5 |
| 20260505110504 | 20 | 334 | 6.4 | 22.5 | 0.00 | 3.10 | 0.66 | 78 | 1021.6 |
| 20260505102003 | 21 | 331 | 9.7 | 25.7 | 0.00 | 3.10 | 0.66 | 74 | 1022.6 |
| 20260505101506 | 22 | 333 | 6.4 | 17.7 | 0.00 | 3.10 | 0.66 | 74 | 1022.9 |
| 20260505101003 | 22 | 333 | 8.0 | 25.7 | 0.00 | 3.10 | 0.66 | 76 | 1023.3 |
| 20260505100004 | 21 | 353 | 6.4 | 20.9 | 0.00 | 3.10 | 0.66 | 77 | 1023.3 |
| 20260505095504 | 21 | 3 | 4.8 | 17.7 | 0.00 | 3.10 | 0.66 | 79 | 1023.3 |
| 20260505094505 | 19 | 15 | 8.0 | 17.7 | 0.00 | 3.10 | 0.66 | 82 | 1023.6 |
| 20260505093505 | 19 | 0 | 0.0 | 0.0 | 0.00 | 3.10 | 0.66 | 83 | 1023.9 |
| 20260505093004 | 19 | 0 | 0.0 | 0.0 | 0.00 | 3.10 | 0.66 | 83 | 1024.1 |
| 20260505092504 | 19 | 359 | 1.6 | 4.8 | 0.00 | 3.10 | 0.66 | 83 | 1024.2 |
| 20260505092003 | 18 | 3 | 1.6 | 9.7 | 0.00 | 3.10 | 0.66 | 83 | 1024.3 |
| 20260505091504 | 18 | 6 | 3.2 | 12.9 | 0.00 | 3.10 | 0.66 | 83 | 1024.5 |
| 20260505091004 | 18 | 15 | 3.2 | 12.9 | 0.00 | 3.10 | 0.66 | 83 | 1024.5 |
| 20260505090505 | 18 | 18 | 4.8 | 16.1 | 0.00 | 3.10 | 0.66 | 84 | 1024.7 |
| 20260505090005 | 18 | 18 | 4.8 | 16.1 | 0.00 | 3.10 | 0.66 | 84 | 1024.7 |
| 20260505085504 | 18 | 21 | 1.6 | 12.9 | 0.00 | 3.10 | 0.66 | 84 | 1024.9 |
| 20260505085004 | 18 | 0 | 0.0 | 11.3 | 0.00 | 3.10 | 0.66 | 85 | 1025.0 |
| 20260505084504 | 18 | 10 | 1.6 | 14.5 | 0.00 | 3.10 | 0.66 | 85 | 1025.0 |
| 20260505084004 | 18 | 15 | 1.6 | 14.5 | 0.00 | 3.10 | 0.66 | 85 | 1025.2 |
| 20260505083505 | 18 | 0 | 0.0 | 6.4 | 0.00 | 3.10 | 0.66 | 86 | 1025.3 |
| 20260505083003 | 18 | 0 | 0.0 | 6.4 | 0.00 | 3.10 | 0.66 | 86 | 1025.6 |
| 20260505082505 | 18 | 0 | 0.0 | 0.0 | 0.00 | 3.10 | 0.66 | 87 | 1025.7 |
| 20260505082004 | 17 | 0 | 0.0 | 0.0 | 0.00 | 3.10 | 0.66 | 87 | 1025.5 |
| 20260505081504 | 17 | 0 | 0.0 | 0.0 | 0.00 | 3.10 | 0.66 | 87 | 1026.0 |
| 20260505081004 | 17 | 0 | 0.0 | 0.0 | 0.00 | 3.10 | 0.66 | 87 | 1025.9 |
| 20260505080505 | 17 | 0 | 0.0 | 0.0 | 0.00 | 3.10 | 0.66 | 87 | 1026.0 |
| 20260505075505 | 17 | 0 | 0.0 | 0.0 | 0.00 | 3.10 | 0.66 | 87 | 1026.0 |
| 20260505075004 | 17 | 0 | 0.0 | 0.0 | 0.00 | 3.10 | 0.66 | 87 | 1026.1 |
| 20260505074505 | 17 | 0 | 0.0 | 0.0 | 0.00 | 3.10 | 0.66 | 87 | 1026.2 |
| 20260505074003 | 16 | 0 | 0.0 | 0.0 | 0.00 | 3.10 | 0.66 | 87 | 1026.2 |
| 20260505073505 | 16 | 0 | 0.0 | 0.0 | 0.00 | 3.10 | 0.66 | 87 | 1026.4 |
| 20260505072505 | 16 | 0 | 0.0 | 0.0 | 0.00 | 3.10 | 0.66 | 87 | 1026.6 |
| 20260505072004 | 16 | 0 | 0.0 | 0.0 | 0.00 | 3.10 | 0.66 | 87 | 1026.7 |
| 20260505071505 | 15 | 0 | 0.0 | 0.0 | 0.00 | 3.10 | 0.66 | 87 | 1026.4 |
| 20260505070505 | 15 | 0 | 0.0 | 0.0 | 0.00 | 3.10 | 0.66 | 87 | 1026.5 |
| 20260505070004 | 15 | 0 | 0.0 | 0.0 | 0.00 | 3.10 | 0.66 | 87 | 1026.6 |
| 20260505065505 | 15 | 0 | 0.0 | 0.0 | 0.03 | 3.10 | 0.66 | 87 | 1026.6 |
| 20260505065004 | 15 | 0 | 0.0 | 0.0 | 0.03 | 3.10 | 0.66 | 87 | 1026.7 |
| 20260505064505 | 14 | 0 | 0.0 | 0.0 | 0.03 | 3.10 | 0.66 | 87 | 1026.8 |
| 20260505064004 | 14 | 0 | 0.0 | 0.0 | 0.03 | 3.10 | 0.66 | 87 | 1026.9 |
| 20260505063505 | 14 | 0 | 0.0 | 0.0 | 0.03 | 3.10 | 0.66 | 87 | 1026.9 |
| 20260505063004 | 14 | 0 | 0.0 | 0.0 | 0.03 | 3.10 | 0.66 | 87 | 1026.6 |
| 20260505062505 | 14 | 0 | 0.0 | 0.0 | 0.03 | 3.10 | 0.66 | 87 | 1026.6 |
| 20260505062004 | 14 | 0 | 0.0 | 0.0 | 0.03 | 3.10 | 0.66 | 87 | 1027.0 |
| 20260505061505 | 14 | 0 | 0.0 | 0.0 | 0.03 | 3.10 | 0.66 | 87 | 1026.9 |
| 20260505061004 | 14 | 0 | 0.0 | 0.0 | 0.03 | 3.10 | 0.66 | 87 | 1026.8 |
| 20260505060505 | 14 | 0 | 0.0 | 0.0 | 0.03 | 3.10 | 0.66 | 87 | 1026.7 |
| 20260505060004 | 14 | 0 | 0.0 | 0.0 | 0.03 | 3.10 | 0.66 | 87 | 1026.8 |
| 20260505054505 | 14 | 0 | 0.0 | 0.0 | 0.00 | 3.10 | 0.64 | 87 | 1026.8 |
| 20260505054004 | 14 | 0 | 0.0 | 0.0 | 0.00 | 3.10 | 0.64 | 87 | 1026.8 |
| 20260505053505 | 14 | 0 | 0.0 | 0.0 | 0.00 | 3.10 | 0.64 | 87 | 1026.7 |
| 20260505053004 | 13 | 0 | 0.0 | 0.0 | 0.00 | 3.10 | 0.64 | 87 | 1026.6 |
| 20260505052004 | 13 | 0 | 0.0 | 0.0 | 0.00 | 3.10 | 0.64 | 87 | 1026.8 |
| 20260505051505 | 13 | 0 | 0.0 | 0.0 | 0.00 | 3.10 | 0.64 | 88 | 1027.0 |
| 20260505051004 | 13 | 0 | 0.0 | 0.0 | 0.00 | 3.10 | 0.64 | 87 | 1026.8 |
| 20260505035527 | 13 | 0 | 0.0 | 0.0 | 0.00 | 3.10 | 0.64 | 87 | 1026.9 |
| 20260505035010 | 13 | 0 | 0.0 | 0.0 | 0.00 | 3.10 | 0.64 | 87 | 1026.8 |
| 20260505034516 | 13 | 0 | 0.0 | 0.0 | 0.00 | 3.10 | 0.64 | 87 | 1026.5 |
| 20260505034036 | 13 | 0 | 0.0 | 0.0 | 0.00 | 3.10 | 0.64 | 87 | 1027.0 |
| 20260505033529 | 13 | 0 | 0.0 | 0.0 | 0.03 | 3.10 | 0.64 | 87 | 1027.0 |
| 20260505033054 | 13 | 0 | 0.0 | 0.0 | 0.03 | 3.10 | 0.64 | 87 | 1026.4 |
| 20260505032102 | 13 | 0 | 0.0 | 0.0 | 0.03 | 3.10 | 0.64 | 87 | 1026.7 |
| 20260505031536 | 13 | 0 | 0.0 | 0.0 | 0.03 | 3.10 | 0.64 | 87 | 1026.7 |
| 20260505031019 | 13 | 0 | 0.0 | 0.0 | 0.03 | 3.10 | 0.64 | 87 | 1026.5 |
| 20260505030515 | 13 | 0 | 0.0 | 0.0 | 0.03 | 3.10 | 0.64 | 87 | 1026.4 |
| 20260505025514 | 13 | 0 | 0.0 | 0.0 | 0.05 | 3.10 | 0.64 | 87 | 1026.6 |
| 20260505025016 | 13 | 0 | 0.0 | 0.0 | 0.05 | 3.10 | 0.64 | 87 | 1026.7 |
| 20260505024506 | 13 | 0 | 0.0 | 0.0 | 0.08 | 3.10 | 0.64 | 87 | 1026.7 |
| 20260505024021 | 13 | 0 | 0.0 | 0.0 | 0.10 | 3.10 | 0.61 | 87 | 1026.6 |
| 20260505023519 | 13 | 0 | 0.0 | 0.0 | 0.13 | 3.10 | 0.61 | 87 | 1026.6 |
| 20260505023004 | 13 | 0 | 0.0 | 0.0 | 0.15 | 3.10 | 0.61 | 87 | 1026.8 |
| 20260505022518 | 13 | 0 | 0.0 | 0.0 | 0.18 | 3.10 | 0.61 | 87 | 1026.8 |
| 20260505022004 | 13 | 0 | 0.0 | 0.0 | 0.23 | 3.10 | 0.61 | 87 | 1027.0 |
| 20260505021521 | 13 | 0 | 0.0 | 0.0 | 0.25 | 3.10 | 0.61 | 87 | 1027.2 |
| 20260505021018 | 13 | 0 | 0.0 | 0.0 | 0.30 | 3.10 | 0.61 | 87 | 1027.0 |
| 20260505020509 | 14 | 0 | 0.0 | 0.0 | 0.33 | 3.10 | 0.61 | 87 | 1026.9 |
| 20260505020022 | 14 | 0 | 0.0 | 0.0 | 0.36 | 3.10 | 0.61 | 87 | 1026.9 |
| 20260505015004 | 13 | 0 | 0.0 | 0.0 | 0.48 | 3.10 | 0.58 | 87 | 1027.6 |
| 20260505014017 | 13 | 0 | 0.0 | 0.0 | 0.48 | 3.10 | 0.51 | 87 | 1027.9 |
| 20260505013504 | 13 | 0 | 0.0 | 0.0 | 0.51 | 3.10 | 0.51 | 87 | 1027.8 |
| 20260505012513 | 14 | 271 | 6.4 | 17.7 | 0.43 | 3.10 | 0.43 | 87 | 1028.3 |
| 20260505012004 | 14 | 273 | 6.4 | 17.7 | 0.41 | 3.07 | 0.41 | 87 | 1028.3 |
| 20260505011515 | 14 | 277 | 6.4 | 17.7 | 0.36 | 3.07 | 0.36 | 87 | 1028.6 |
| 20260505011022 | 14 | 275 | 8.0 | 20.9 | 0.33 | 3.07 | 0.33 | 87 | 1028.4 |
| 20260505010524 | 14 | 271 | 9.7 | 20.9 | 0.28 | 3.07 | 0.28 | 87 | 1028.6 |
| 20260505010010 | 14 | 268 | 12.9 | 25.7 | 0.23 | 3.07 | 0.23 | 87 | 1028.7 |
| 20260505005520 | 14 | 262 | 9.7 | 25.7 | 0.20 | 3.07 | 0.20 | 87 | 1028.6 |
| 20260505005027 | 14 | 255 | 6.4 | 19.3 | 0.10 | 3.05 | 0.10 | 87 | 1028.5 |
| 20260505004515 | 14 | 261 | 8.0 | 24.1 | 0.05 | 3.05 | 0.05 | 87 | 1028.6 |
| 20260505004004 | 14 | 269 | 4.8 | 24.1 | 0.03 | 3.05 | 0.03 | 87 | 1028.5 |
| 20260505003516 | 14 | 0 | 0.0 | 12.9 | 0.00 | 3.05 | 0.00 | 87 | 1028.4 |
| 20260505003016 | 14 | 0 | 0.0 | 0.0 | 0.00 | 3.05 | 0.00 | 87 | 1027.1 |
| 20260505002520 | 13 | 0 | 0.0 | 0.0 | 0.00 | 3.05 | 0.00 | 87 | 1026.8 |
| 20260505002019 | 13 | 0 | 0.0 | 0.0 | 0.00 | 3.05 | 0.00 | 87 | 1026.8 |
| 20260505001026 | 13 | 0 | 0.0 | 0.0 | 0.00 | 3.05 | 0.00 | 87 | 1027.0 |
| 20260505000536 | 13 | 0 | 0.0 | 0.0 | 0.00 | 3.05 | 0.00 | 87 | 1027.0 |
| 20260505000004 | 13 | 0 | 0.0 | 0.0 | 0.00 | 3.05 | 0.00 | 87 | 1027.0 |
| 20260504235004 | 14 | 0 | 0.0 | 0.0 | 0.00 | 3.05 | 0.00 | 87 | 1026.9 |
| 20260504234505 | 14 | 0 | 0.0 | 0.0 | 0.00 | 3.05 | 0.00 | 87 | 1026.9 |
| 20260504234004 | 14 | 0 | 0.0 | 0.0 | 0.00 | 3.05 | 0.00 | 87 | 1027.1 |
| 20260504233505 | 14 | 0 | 0.0 | 0.0 | 0.00 | 3.05 | 0.00 | 87 | 1027.1 |
| 20260504233004 | 14 | 0 | 0.0 | 0.0 | 0.00 | 3.05 | 0.00 | 87 | 1027.1 |
| 20260504232505 | 14 | 0 | 0.0 | 0.0 | 0.00 | 3.05 | 0.00 | 87 | 1027.2 |
| 20260504232004 | 14 | 0 | 0.0 | 0.0 | 0.00 | 3.05 | 0.00 | 87 | 1027.3 |
| 20260504231505 | 14 | 0 | 0.0 | 0.0 | 0.00 | 3.05 | 0.00 | 87 | 1027.2 |
| 20260504231004 | 14 | 0 | 0.0 | 0.0 | 0.00 | 3.05 | 0.00 | 87 | 1027.1 |
| 20260504230505 | 14 | 0 | 0.0 | 0.0 | 0.00 | 3.05 | 0.00 | 87 | 1027.2 |
| 20260504230005 | 14 | 0 | 0.0 | 0.0 | 0.00 | 3.05 | 0.00 | 87 | 1027.2 |
| 20260504225004 | 14 | 0 | 0.0 | 0.0 | 0.00 | 3.05 | 0.00 | 87 | 1027.2 |
| 20260504224505 | 14 | 0 | 0.0 | 0.0 | 0.00 | 3.05 | 0.00 | 87 | 1027.3 |
| 20260504223504 | 14 | 0 | 0.0 | 0.0 | 0.00 | 3.05 | 0.00 | 87 | 1027.2 |
| 20260504223004 | 14 | 0 | 0.0 | 0.0 | 0.00 | 3.05 | 0.00 | 87 | 1027.2 |
| 20260504222505 | 15 | 0 | 0.0 | 0.0 | 0.00 | 3.05 | 0.00 | 87 | 1027.2 |
| 20260504222004 | 15 | 0 | 0.0 | 0.0 | 0.00 | 3.05 | 0.00 | 87 | 1027.3 |
| 20260504221505 | 15 | 0 | 0.0 | 0.0 | 0.00 | 3.05 | 0.00 | 87 | 1027.4 |
| 20260504221004 | 15 | 0 | 0.0 | 0.0 | 0.00 | 3.05 | 0.00 | 87 | 1027.7 |
| 20260504220505 | 15 | 0 | 0.0 | 0.0 | 0.00 | 3.05 | 0.00 | 87 | 1027.9 |
| 20260504215505 | 15 | 0 | 0.0 | 0.0 | 0.00 | 3.05 | 3.05 | 87 | 1028.0 |
| 20260504215004 | 15 | 0 | 0.0 | 0.0 | 0.00 | 3.05 | 3.05 | 87 | 1028.0 |
| 20260504214004 | 15 | 0 | 0.0 | 0.0 | 0.00 | 3.05 | 3.05 | 87 | 1028.0 |
| 20260504213004 | 15 | 0 | 0.0 | 0.0 | 0.00 | 3.05 | 3.05 | 87 | 1028.3 |
| 20260504212505 | 16 | 0 | 0.0 | 0.0 | 0.00 | 3.05 | 3.05 | 87 | 1028.4 |
| 20260504212004 | 16 | 0 | 0.0 | 0.0 | 0.00 | 3.05 | 3.05 | 86 | 1028.4 |
| 20260504211004 | 16 | 0 | 0.0 | 0.0 | 0.00 | 3.05 | 3.05 | 86 | 1028.4 |
| 20260504210505 | 16 | 0 | 0.0 | 0.0 | 0.00 | 3.05 | 3.05 | 86 | 1028.4 |
| 20260504210004 | 16 | 0 | 0.0 | 0.0 | 0.00 | 3.05 | 3.05 | 85 | 1028.5 |
| 20260504205505 | 16 | 0 | 0.0 | 0.0 | 0.00 | 3.05 | 3.05 | 85 | 1028.6 |
| 20260504205004 | 16 | 0 | 0.0 | 0.0 | 0.00 | 3.05 | 3.05 | 85 | 1028.8 |
| 20260504204505 | 17 | 0 | 0.0 | 0.0 | 0.00 | 3.05 | 3.05 | 84 | 1028.8 |
| 20260504204004 | 17 | 0 | 0.0 | 0.0 | 0.00 | 3.05 | 3.05 | 84 | 1028.8 |
| 20260504203505 | 17 | 0 | 0.0 | 0.0 | 0.00 | 3.05 | 3.05 | 84 | 1028.9 |
| 20260504203004 | 17 | 0 | 0.0 | 0.0 | 0.00 | 3.05 | 3.05 | 84 | 1029.0 |
| 20260504202505 | 17 | 0 | 0.0 | 0.0 | 0.00 | 3.05 | 3.05 | 84 | 1028.9 |
| 20260504202004 | 17 | 0 | 0.0 | 0.0 | 0.00 | 3.05 | 3.05 | 84 | 1029.0 |
| 20260504201505 | 17 | 0 | 0.0 | 0.0 | 0.00 | 3.05 | 3.05 | 84 | 1029.0 |
| 20260504201004 | 17 | 0 | 0.0 | 0.0 | 0.00 | 3.05 | 3.05 | 84 | 1029.1 |
| 20260504200505 | 17 | 0 | 0.0 | 0.0 | 0.00 | 3.05 | 3.05 | 84 | 1029.2 |
| 20260504200004 | 17 | 0 | 0.0 | 0.0 | 0.00 | 3.05 | 3.05 | 84 | 1028.9 |
| 20260504195505 | 17 | 0 | 0.0 | 0.0 | 0.00 | 3.05 | 3.05 | 84 | 1028.9 |
| 20260504195004 | 17 | 0 | 0.0 | 0.0 | 0.00 | 3.05 | 3.05 | 84 | 1028.9 |
| 20260504194505 | 17 | 0 | 0.0 | 0.0 | 0.00 | 3.05 | 3.05 | 84 | 1028.9 |